TimeEST,TemperatureF,Dew PointF,Humidity,Sea Level PressureIn,VisibilityMPH,Wind Direction,Wind SpeedMPH,Gust SpeedMPH,PrecipitationIn,Events,Conditions,WindDirDegrees,DateUTC
12:53 AM,43.0,42.1,97,30.00,0.2,South,3.5,-,N/A,Fog,Fog,190,2012-12-08 05:53:00
1:53 AM,42.1,42.1,100,29.98,0.2,Calm,Calm,-,N/A,Fog,Fog,0,2012-12-08 06:53:00
2:18 AM,42.8,41.0,93,30.00,0.2,WSW,4.6,-,N/A,Fog,Fog,240,2012-12-08 07:18:00
2:37 AM,42.8,41.0,93,30.00,0.2,South,3.5,-,N/A,Fog,Fog,190,2012-12-08 07:37:00
2:53 AM,41.0,41.0,100,29.98,0.2,Calm,Calm,-,N/A,Fog,Fog,0,2012-12-08 07:53:00
3:53 AM,41.0,41.0,100,29.97,0.2,Calm,Calm,-,N/A,Fog,Fog,0,2012-12-08 08:53:00
4:36 AM,42.8,41.0,93,30.00,0.2,Calm,Calm,-,0.01,Fog,Fog,0,2012-12-08 09:36:00
4:53 AM,41.0,39.9,96,29.98,0.2,Calm,Calm,-,0.01,Fog,Fog,0,2012-12-08 09:53:00
5:53 AM,41.0,41.0,100,29.98,0.2,Calm,Calm,-,N/A,Fog,Fog,0,2012-12-08 10:53:00
6:03 AM,41.0,41.0,100,30.00,0.5,Calm,Calm,-,N/A,Fog,Fog,0,2012-12-08 11:03:00
6:20 AM,39.2,37.4,93,30.00,0.2,North,4.6,-,N/A,Fog,Fog,360,2012-12-08 11:20:00
6:33 AM,39.2,39.2,100,30.00,0.2,Calm,Calm,-,N/A,Fog,Fog,0,2012-12-08 11:33:00
6:53 AM,39.9,39.0,97,29.99,0.2,Calm,Calm,-,N/A,Fog,Fog,0,2012-12-08 11:53:00
7:53 AM,39.9,39.9,100,30.00,0.2,Calm,Calm,-,N/A,Fog,Fog,0,2012-12-08 12:53:00
8:27 AM,41.0,41.0,100,30.02,0.2,Calm,Calm,-,N/A,Fog,Fog,0,2012-12-08 13:27:00
8:53 AM,42.1,42.1,100,30.01,0.2,Calm,Calm,-,N/A,Fog,Fog,0,2012-12-08 13:53:00
9:08 AM,42.8,42.8,100,30.03,0.8,Calm,Calm,-,N/A,,Overcast,0,2012-12-08 14:08:00
9:42 AM,44.6,42.8,93,30.04,1.0,Calm,Calm,-,N/A,,Overcast,0,2012-12-08 14:42:00
9:53 AM,44.1,43.0,96,30.02,1.5,Calm,Calm,-,N/A,,Overcast,0,2012-12-08 14:53:00
10:02 AM,44.6,42.8,93,30.04,2.0,Calm,Calm,-,N/A,,Overcast,0,2012-12-08 15:02:00
10:37 AM,46.4,44.6,93,30.04,4.0,Calm,Calm,-,N/A,,Overcast,0,2012-12-08 15:37:00
10:46 AM,46.4,44.6,93,30.04,5.0,Variable,3.5,-,N/A,,Overcast,0,2012-12-08 15:46:00
10:53 AM,46.9,46.0,97,30.01,5.0,Calm,Calm,-,N/A,,Overcast,0,2012-12-08 15:53:00
11:15 AM,50.0,46.4,87,30.03,6.0,SSW,3.5,-,N/A,,Scattered Clouds,200,2012-12-08 16:15:00
11:53 AM,52.0,46.9,83,29.99,9.0,Calm,Calm,-,N/A,,Clear,0,2012-12-08 16:53:00
12:53 PM,57.0,48.0,72,29.96,10.0,Calm,Calm,-,N/A,,Clear,0,2012-12-08 17:53:00
1:53 PM,62.1,50.0,65,29.94,10.0,South,5.8,-,N/A,,Clear,190,2012-12-08 18:53:00
2:53 PM,66.0,50.0,56,29.94,10.0,Variable,5.8,-,N/A,,Clear,0,2012-12-08 19:53:00
3:53 PM,66.0,50.0,56,29.94,10.0,SSW,9.2,-,N/A,,Clear,200,2012-12-08 20:53:00
4:53 PM,64.9,50.0,58,29.94,10.0,South,6.9,-,N/A,,Clear,190,2012-12-08 21:53:00
5:53 PM,61.0,50.0,67,29.96,10.0,Calm,Calm,-,N/A,,Clear,0,2012-12-08 22:53:00
6:53 PM,61.0,50.0,67,29.96,10.0,Calm,Calm,-,N/A,,Mostly Cloudy,0,2012-12-08 23:53:00
7:53 PM,57.0,50.0,77,29.98,10.0,Calm,Calm,-,N/A,,Partly Cloudy,0,2012-12-09 00:53:00
8:53 PM,57.0,51.1,81,30.00,10.0,South,4.6,-,N/A,,Clear,180,2012-12-09 01:53:00
9:53 PM,55.0,51.1,86,30.00,10.0,South,3.5,-,N/A,,Clear,190,2012-12-09 02:53:00
10:53 PM,55.0,52.0,89,30.01,10.0,South,5.8,-,N/A,,Partly Cloudy,190,2012-12-09 03:53:00
11:53 PM,55.0,52.0,89,30.02,6.0,Calm,Calm,-,N/A,,Scattered Clouds,0,2012-12-09 04:53:00